TimeEST,TemperatureF,Dew PointF,Humidity,Sea Level PressureIn,VisibilityMPH,Wind Direction,Wind SpeedMPH,Gust SpeedMPH,PrecipitationIn,Events,Conditions,WindDirDegrees,DateUTC
12:56 AM,33.1,27.0,78,30.01,10.0,Calm,Calm,-,N/A,,Scattered Clouds,0,2013-03-06 05:56:00
1:56 AM,37.0,32.0,82,30.00,10.0,Variable,3.5,-,N/A,,Scattered Clouds,0,2013-03-06 06:56:00
2:56 AM,37.0,30.9,79,29.98,10.0,Variable,4.6,-,N/A,,Clear,0,2013-03-06 07:56:00
3:52 AM,37.4,32.0,81,29.95,10.0,Variable,5.8,-,N/A,,Mostly Cloudy,0,2013-03-06 08:52:00
3:56 AM,37.9,32.0,79,29.96,10.0,Variable,5.8,-,N/A,,Mostly Cloudy,0,2013-03-06 08:56:00
4:10 AM,37.4,32.0,81,29.95,10.0,Variable,4.6,-,N/A,,Scattered Clouds,0,2013-03-06 09:10:00
4:41 AM,37.4,32.0,81,29.94,10.0,Variable,5.8,-,N/A,,Mostly Cloudy,0,2013-03-06 09:41:00
4:56 AM,37.9,32.0,79,29.95,10.0,Variable,5.8,-,N/A,,Mostly Cloudy,0,2013-03-06 09:56:00
5:14 AM,37.4,32.0,81,29.95,10.0,ENE,8.1,-,N/A,,Scattered Clouds,70,2013-03-06 10:14:00
5:24 AM,37.4,32.0,81,29.95,10.0,Variable,5.8,-,N/A,,Mostly Cloudy,0,2013-03-06 10:24:00
5:51 AM,37.4,33.8,87,29.95,10.0,NE,6.9,19.6,N/A,,Scattered Clouds,50,2013-03-06 10:51:00
5:56 AM,37.9,33.1,83,29.95,10.0,Variable,6.9,19.6,N/A,,Partly Cloudy,0,2013-03-06 10:56:00
6:16 AM,37.4,33.8,87,29.95,10.0,Variable,5.8,-,N/A,,Mostly Cloudy,0,2013-03-06 11:16:00
6:56 AM,37.9,33.1,83,29.94,10.0,Variable,3.5,-,N/A,,Mostly Cloudy,0,2013-03-06 11:56:00
7:56 AM,39.9,33.1,77,29.93,10.0,Variable,5.8,19.6,N/A,,Mostly Cloudy,0,2013-03-06 12:56:00
9:56 AM,43.0,32.0,65,29.92,10.0,East,12.7,27.6,N/A,,Overcast,80,2013-03-06 14:56:00
10:56 AM,42.1,34.0,73,29.92,10.0,East,17.3,29.9,0.00,Rain,Light Rain,80,2013-03-06 15:56:00
11:56 AM,42.1,33.1,70,29.90,10.0,ENE,15.0,31.1,0.00,,Overcast,60,2013-03-06 16:56:00
12:34 PM,41.0,32.0,70,29.89,10.0,ENE,15.0,32.2,N/A,,Overcast,60,2013-03-06 17:34:00
12:56 PM,41.0,32.0,70,29.88,10.0,NE,16.1,31.1,0.00,Rain,Light Rain,50,2013-03-06 17:56:00
1:56 PM,41.0,30.9,67,29.88,10.0,ENE,11.5,25.3,0.00,,Overcast,60,2013-03-06 18:56:00
2:56 PM,41.0,30.0,65,29.86,10.0,NE,12.7,35.7,N/A,,Overcast,50,2013-03-06 19:56:00
3:56 PM,42.1,30.0,62,29.85,10.0,NE,18.4,36.8,N/A,,Overcast,50,2013-03-06 20:56:00
4:11 PM,41.0,30.2,65,29.85,10.0,NE,13.8,27.6,N/A,,Overcast,40,2013-03-06 21:11:00
4:52 PM,41.0,30.2,65,29.84,10.0,NE,15.0,32.2,N/A,,Overcast,40,2013-03-06 21:52:00
4:56 PM,41.0,30.9,67,29.85,10.0,NE,12.7,31.1,N/A,,Overcast,50,2013-03-06 21:56:00
5:18 PM,39.2,30.2,70,29.85,10.0,NNE,12.7,31.1,N/A,,Overcast,20,2013-03-06 22:18:00
5:36 PM,39.2,30.2,70,29.86,10.0,NNE,10.4,32.2,N/A,,Overcast,30,2013-03-06 22:36:00
5:56 PM,39.9,30.9,70,29.87,10.0,NNE,12.7,34.5,N/A,,Overcast,20,2013-03-06 22:56:00
6:56 PM,39.0,30.9,73,29.88,10.0,NNE,15.0,26.5,0.00,Rain,Light Rain,30,2013-03-06 23:56:00
7:56 PM,37.9,30.9,76,29.88,10.0,NNE,18.4,38.0,0.00,,Overcast,20,2013-03-07 00:56:00
8:56 PM,37.9,30.0,73,29.88,10.0,NNE,16.1,39.1,N/A,,Overcast,20,2013-03-07 01:56:00
9:21 PM,37.4,30.2,75,29.88,10.0,NNE,16.1,28.8,0.00,Rain,Light Rain,20,2013-03-07 02:21:00
9:56 PM,37.0,30.9,79,29.89,7.0,NNE,11.5,36.8,0.01,Snow,Light Snow,30,2013-03-07 02:56:00
10:56 PM,36.0,32.0,86,29.88,8.0,North,16.1,28.8,0.04,Snow,Light Snow,10,2013-03-07 03:56:00
11:12 PM,35.6,32.0,87,29.88,10.0,North,17.3,31.1,0.00,Rain,Light Rain,10,2013-03-07 04:12:00
11:31 PM,35.6,32.0,87,29.87,10.0,North,19.6,33.4,0.00,Rain,Light Rain,10,2013-03-07 04:31:00
11:40 PM,35.6,32.0,87,29.87,10.0,North,16.1,32.2,0.00,,Overcast,10,2013-03-07 04:40:00
11:56 PM,36.0,32.0,86,29.87,10.0,North,20.7,33.4,0.02,,Overcast,10,2013-03-07 04:56:00